Weather WX

World > North America > United States > Ohio

Hamilton, Ohio Regional Weather

Lat: 39.39N, Lon: 84.56W
Wx Zone: OHZ070
Feedback

Hamilton, OH Regional Weather

Expires:201906252300;;073463
ASUS41 KCLE 252212
RWRCLE
OHIO REGIONAL WEATHER ROUNDUP
NATIONAL WEATHER SERVICE WILMINGTON, OH
600 PM EDT TUE JUN 25 2019

NOTE: "FAIR" INDICATES FEW OR NO CLOUDS BELOW 12,000 FEET WITH NO
SIGNIFICANT WEATHER AND/OR OBSTRUCTIONS TO VISIBILITY.


OHZ042-051>053-060>062-070>072-077>081-252300-
  SOUTHWEST OHIO
  
CITY           SKY/WX    TMP DP  RH WIND       PRES   REMARKS
CINC-COVINGTON PTSUNNY   80  58  46 SW12      30.02S                  
CINC-LUNKEN    FAIR      82  62  50 SW9G24    30.01S                  
HAMILTON       FAIR      83  60  45 SW8       30.00F                  
DAYTON         FAIR      83  59  44 SW16      30.00S                  
WRIGHT-PAT AFB FAIR      83  59  44 SW13      29.98F                  
DAYTON GENERAL FAIR      85  57  38 SW10G20   30.00S                  
WILMINGTON     FAIR      81  59  47 SW10      30.00F                  
$$


SKY/WX - Weather  TMP - Temperature  DP - Dew Point  RH - Relative Humidity
WIND - Wind Direction/Speed PRES - Barometric Pressure VSB - Visibility
WCI - Wind Chill Index E13G22 Wind - East Wind 13 mph/Gusts of 22 mph